Weather observations for the past three days for
Cincinnati/Northern Kentucky International Airport
Imperial (Metric)
Date Time (edt) Wind (mph) Vis. (mi.) Weather Sky Cond. Temperature (ºF) Relative Humidity Wind Chill (°F) Heat Index (°F) Pressure Precipitation (in)
Air Dwpt 6 hour altimeter (in) sea level (mb) 1 hr 3 hr 6 hr
Max. Min.
19 12:52 Vrbl 3 10.00 Mostly Cloudy FEW042 BKN055 78.1 52 40% 79 30.17 1020.9
19 11:52 NE 9 10.00 A Few Clouds FEW041 75.9 55.9 50% 78 30.18 1021.1
19 10:52 E 8 10.00 Fair CLR 73 57 57% 30.18 1021.2
19 09:52 NE 8 10.00 Fair CLR 72 55 55% 30.18 1021.2
19 08:52 E 9 10.00 Fair CLR 68 55.9 65% 30.18 1021.2
19 07:52 NE 8 10.00 Fair CLR 64.9 55.9 66 63 73% 30.18 1021.1
19 06:52 E 12 10.00 A Few Clouds FEW050 64 55 73% 30.16 1020.4
19 05:52 E 7 10.00 Fair CLR 64 55.9 75% 30.15 1020.1
19 04:52 NE 10 10.00 A Few Clouds FEW055 64.9 55 70% 30.14 1019.9
19 03:52 NE 6 10.00 A Few Clouds FEW055 64.9 55.9 73% 30.14 1019.7
19 02:52 NE 9 10.00 Fair CLR 66 55.9 70% 30.14 1019.7
19 01:52 NE 8 10.00 Fair CLR 66 55.9 75 64.9 70% 30.14 1019.9
19 00:52 N 7 10.00 Fair CLR 66 55.9 70% 30.15 1020.0
18 23:52 N 8 10.00 Fair CLR 66 57 73% 30.14 1019.7
18 22:52 N 9 10.00 Fair CLR 68 57 68% 30.13 1019.4
18 21:52 N 9 10.00 Fair CLR 69.1 55.9 63% 30.12 1019.1
18 20:52 N 10 10.00 Fair CLR 72 55.9 57% 30.1 1018.7
18 19:52 N 13 10.00 A Few Clouds FEW045 75 55 80.1 75 50% 78 30.09 1018.2
18 18:52 N 15 10.00 A Few Clouds FEW050 78.1 55 45% 79 30.09 1018.0
18 17:52 N 14 10.00 A Few Clouds FEW050 79 55 44% 80 30.09 1018.1
18 16:52 N 14 10.00 A Few Clouds FEW050 79 55.9 45% 80 30.09 1018.1
18 15:52 NW 9 G 20 10.00 A Few Clouds FEW055 80.1 55 42% 80 30.09 1018.0
18 14:52 NW 10 G 22 10.00 A Few Clouds FEW050 78.1 55.9 47% 79 30.1 1018.2
18 13:52 N 9 G 17 10.00 A Few Clouds FEW047 78.1 55 78.1 63 45% 79 30.1 1018.3
18 12:52 N 12 G 20 10.00 A Few Clouds FEW048 77 55 47% 78 30.1 1018.4
18 11:52 N 12 G 22 10.00 A Few Clouds FEW040 75 54 48% 78 30.11 1018.5
18 10:52 N 12 10.00 A Few Clouds FEW300 71.1 55.9 59% 30.11 1018.7
18 09:52 N 12 10.00 Partly Cloudy SCT300 66.9 55.9 68% 30.1 1018.5
18 08:52 N 12 10.00 Mostly Cloudy BKN280 64 55.9 75% 30.09 1018.2
18 07:52 N 8 10.00 Mostly Cloudy BKN280 63 55.9 69.1 62.1 78% 30.08 1017.8
18 06:52 N 10 10.00 Mostly Cloudy FEW210 BKN280 63 54 73% 30.05 1016.8
18 05:52 N 7 10.00 Overcast OVC250 63 55 76% 30.03 1016.2
18 04:52 N 10 10.00 Overcast OVC250 64.9 55 70% 30.03 1015.8
18 03:52 N 12 10.00 Overcast OVC250 66 55.9 70% 30.01 1015.2
18 02:52 N 9 10.00 Overcast OVC250 66.9 59 76% 30.02 1015.5
18 01:52 N 9 10.00 Mostly Cloudy BKN250 69.1 62.1 78.1 69.1 78% 30.01 1015.3
17 23:52 N 9 10.00 Mostly Cloudy FEW050 BKN250 72 66.9 84% 30.01 1015.1
17 22:52 N 6 10.00 Overcast FEW090 BKN100 OVC250 73 66.9 81% 29.99 1014.6
17 21:52 N 5 10.00 Mostly Cloudy SCT046 BKN075 BKN100 BKN130 75 66 74% 76 29.98 1014.3
17 20:52 N 23 G 29 10.00 Overcast and Breezy FEW034 SCT048 BKN100 BKN160 OVC250 75.9 69.1 79% 77 29.95 1013.3
17 19:52 W 6 10.00 Overcast FEW045 SCT120 BKN150 OVC250 78.1 70 88 73 76% 80 29.92 1012.1 0.05
17 18:52 W 7 9.00 Light Rain FEW045 FEW070 BKN110 OVC250 77 71.1 82% 79 29.92 1012.2
17 17:52 NW 3 10.00 Mostly Cloudy FEW043 SCT075 BKN130 BKN250 75.9 70 82% 77 29.92 1012.1 0.05
17 16:52 NW 17 G 35 10.00 Thunderstorm SCT042CB SCT055 BKN070 BKN300 87.1 69.1 55% 91 29.9 1011.4
17 15:52 W 13 10.00 Mostly Cloudy FEW038 FEW050 BKN300 87.1 69.1 55% 91 29.91 1011.6
17 14:52 W 12 G 20 10.00 Mostly Cloudy SCT034TCU SCT075 BKN300 86 70 59% 91 29.92 1012.0
17 13:52 W 8 10.00 Mostly Cloudy SCT034TCU BKN070 82.9 70 84.9 73 65% 87 29.93 1012.4
17 12:52 W 9 10.00 Mostly Cloudy FEW028 BKN034 BKN050 82.9 69.1 63% 87 29.94 1012.6
17 11:52 SW 8 10.00 Mostly Cloudy FEW020 BKN030 BKN100 82 70 67% 86 29.94 1012.6
17 10:52 W 12 10.00 Mostly Cloudy FEW025 SCT100 BKN140 BKN300 79 71.1 77% 82 29.93 1012.2
17 09:52 W 12 10.00 Mostly Cloudy FEW012 BKN100 BKN140 75 70 84% 75 29.93 1012.4
17 08:52 W 10 10.00 Overcast FEW008 OVC031 73 71.1 94% 29.94 1012.7
17 07:52 SW 3 9.00 Overcast FEW085 OVC110 73 71.1 75.9 72 94% 29.91 1011.8
17 06:52 SW 5 10.00 Mostly Cloudy SCT010 BKN120 72 70 94% 29.93 1012.4
17 05:52 SW 6 10.00 Light Rain FEW044 BKN120 OVC200 73 70 90% 29.92 1012.0
17 04:52 W 6 10.00 Overcast FEW041 SCT070 OVC250 73.9 69.1 85% 29.89 1010.9
17 03:52 SW 8 10.00 Mostly Cloudy SCT039 SCT050 BKN070 73.9 69.1 85% 29.89 1010.7
17 02:52 SW 5 10.00 Overcast SCT044 BKN055 OVC070 75 69.1 82% 75 29.89 1010.9
17 01:52 SW 8 10.00 Mostly Cloudy BKN044 BKN065 75.9 69.1 82.9 73 79% 77 29.9 1011.2
17 00:52 S 5 10.00 Mostly Cloudy FEW050 BKN250 73 69.1 87% 29.9 1011.2
16 23:52 W 3 10.00 A Few Clouds FEW050 75.9 68 77% 77 29.91 1011.6
16 22:52 W 6 10.00 Partly Cloudy SCT055 75.9 68 77% 77 29.93 1012.2
16 21:52 W 8 10.00 Mostly Cloudy FEW055 SCT200 BKN300 77 68 74% 79 29.92 1012.0
16 20:52 W 6 10.00 Mostly Cloudy SCT250 BKN300 81 66.9 62% 83 29.88 1010.6
16 19:52 NW 6 10.00 Mostly Cloudy FEW150 FEW250 BKN300 82.9 68 91 82.9 61% 86 29.87 1010.4
16 18:52 W 14 10.00 Partly Cloudy FEW048 FEW130 FEW250 SCT300 84.9 68 57% 88 29.88 1010.8
16 17:52 NW 16 G 30 10.00 Mostly Cloudy FEW050 SCT075 SCT130 BKN300 87.1 69.1 55% 91 29.9 1011.2
16 16:52 W 16 G 24 10.00 Overcast SCT060 BKN110 OVC300 87.1 68 53% 91 29.92 1012.1
16 15:52 W 15 G 26 10.00 Mostly Cloudy FEW055 FEW110 SCT240 BKN300 90 66.9 47% 93 29.92 1011.8
16 14:52 W 12 G 21 10.00 Mostly Cloudy FEW055 FEW240 BKN300 90 66.9 47% 93 29.91 1011.5
16 13:52 SW 14 G 23 10.00 Mostly Cloudy FEW250 BKN300 87.1 66 88 75 50% 89 29.9 1011.2
Date Time (edt) Wind (mph) Vis. (mi.) Weather Sky Cond. Air Dwpt Max. Min. Relative Humidity Wind Chill (°F) Heat Index (°F) altimeter (in) sea level (mb) 1 hr 3 hr 6 hr
6 hour
Temperature (ºF) Pressure Precipitation (in)